QPF
0.00 0.00 0.01 0.04 0.02 0.01 0.00 0.00 0.00 0.00 0.00 0.00 0.00 0.00 0.00 0.00 0.00 0.00 0.00 0.00 0.00 0.00 0.00 0.00 0.03 0.05 0.04 0.02 0.01 0.02 0.01 0.01 0.00 0.00 0.00 0.01 0.00 0.00 0.00 0.00 0.00 0.00 0.02
0.00 0.00 0.00 0.03 0.05 0.03 0.00 0.00 0.00 0.00 0.00 0.00 0.00 0.00 0.00 0.00 0.00 0.00 0.00 0.00 0.00 0.00 0.00 0.00 0.01 0.04 0.02 0.01 0.00 0.00 0.00 0.00 0.00 0.00 0.00 0.00 0.00 0.00 0.00 0.00 0.00 0.00 0.00
0.00 0.00 0.01 0.06 0.12 0.08 0.02 0.01 0.00 0.00 0.00 0.00 0.00 0.00 0.00 0.00 0.00 0.00 0.00 0.00 0.00 0.00 0.00 0.00 0.01 0.01 0.00 0.00 0.00 0.00 0.00 0.00 0.00 0.00 0.00 0.00 0.00 0.00 0.00 0.00 0.00 0.00 0.00
0.00 0.00 0.04 0.13 0.12 0.14 0.08 0.03 0.01 0.01 0.00 0.00 0.00 0.00 0.00 0.00 0.00 0.00 0.00 0.00 0.00 0.00 0.00 0.00 0.00 0.00 0.00 0.00 0.00 0.00 0.00 0.00 0.00 0.00 0.00 0.00 0.00 0.00 0.00 0.00 0.00 0.00 0.00
0.00 0.00 0.02 0.10 0.16 0.19 0.15 0.07 0.05 0.03 0.01 0.00 0.00 0.00 0.00 0.00 0.00 0.00 0.00 0.00 0.00 0.00 0.00 0.00 0.00 0.00 0.00 0.00 0.00 0.00 0.00 0.00 0.00 0.00 0.00 0.00 0.00 0.00 0.00 0.00 0.00 0.00 0.00
0.00 0.00 0.01 0.04 0.16 0.30 0.24 0.12 0.10 0.07 0.03 0.01 0.00 0.00 0.00 0.00 0.00 0.00 0.00 0.00 0.00 0.00 0.00 0.00 0.00 0.00 0.00 0.00 0.00 0.00 0.00 0.00 0.00 0.00 0.00 0.00 0.00 0.00 0.00 0.00 0.00 0.00 0.00
0.00 0.00 0.00 0.04 0.15 0.37 0.36 0.21 0.14 0.11 0.04 0.02 0.00 0.00 0.00 0.00 0.00 0.00 0.00 0.00 0.00 0.00 0.00 0.00 0.00 0.00 0.00 0.00 0.00 0.00 0.00 0.00 0.00 0.00 0.00 0.00 0.00 0.00 0.00 0.00 0.00 0.00 0.00
0.00 0.00 0.00 0.03 0.17 0.38 0.46 0.33 0.21 0.15 0.08 0.03 0.01 0.00 0.00 0.00 0.00 0.00 0.00 0.00 0.00 0.00 0.00 0.00 0.00 0.00 0.00 0.00 0.00 0.00 0.00 0.00 0.00 0.00 0.00 0.00 0.00 0.00 0.00 0.00 0.00 0.00 0.00
0.00 0.00 0.00 0.01 0.10 0.30 0.39 0.40 0.37 0.22 0.14 0.07 0.02 0.00 0.00 0.00 0.00 0.00 0.00 0.00 0.00 0.00 0.00 0.00 0.00 0.00 0.00 0.00 0.00 0.00 0.00 0.00 0.00 0.00 0.00 0.00 0.00 0.00 0.00 0.00 0.00 0.00 0.00
0.00 0.00 0.00 0.00 0.02 0.28 0.39 0.45 0.38 0.30 0.18 0.14 0.05 0.01 0.01 0.02 0.00 0.00 0.00 0.00 0.00 0.00 0.00 0.00 0.00 0.00 0.00 0.00 0.00 0.00 0.00 0.00 0.00 0.00 0.00 0.00 0.00 0.00 0.00 0.00 0.00 0.00 0.00
0.00 0.00 0.00 0.00 0.00 0.07 0.52 0.48 0.32 0.23 0.24 0.19 0.14 0.08 0.06 0.04 0.00 0.00 0.00 0.00 0.00 0.00 0.00 0.00 0.00 0.00 0.00 0.00 0.00 0.00 0.00 0.00 0.00 0.00 0.00 0.00 0.00 0.00 0.00 0.00 0.00 0.00 0.00
0.00 0.00 0.00 0.00 0.00 0.02 0.12 0.49 0.37 0.24 0.27 0.23 0.16 0.09 0.03 0.03 0.01 0.00 0.00 0.00 0.00 0.00 0.00 0.00 0.01 0.00 0.00 0.00 0.00 0.00 0.00 0.00 0.00 0.00 0.00 0.00 0.00 0.00 0.00 0.00 0.00 0.00 0.00
0.00 0.00 0.00 0.00 0.00 0.01 0.03 0.16 0.45 0.44 0.32 0.32 0.22 0.09 0.02 0.07 0.06 0.01 0.00 0.00 0.00 0.00 0.00 0.00 0.00 0.00 0.00 0.00 0.00 0.00 0.00 0.00 0.00 0.00 0.00 0.00 0.00 0.00 0.00 0.00 0.00 0.00 0.00
0.00 0.00 0.00 0.00 0.00 0.00 0.03 0.04 0.20 0.38 0.48 0.37 0.39 0.13 0.03 0.06 0.04 0.01 0.00 0.00 0.00 0.00 0.00 0.00 0.00 0.00 0.00 0.00 0.00 0.00 0.00 0.00 0.00 0.00 0.00 0.00 0.00 0.00 0.00 0.00 0.00 0.00 0.00
0.00 0.00 0.00 0.00 0.00 0.01 0.01 0.03 0.05 0.21 0.37 0.54 0.42 0.26 0.05 0.02 0.02 0.01 0.00 0.00 0.00 0.00 0.00 0.00 0.00 0.00 0.00 0.00 0.00 0.00 0.00 0.00 0.00 0.00 0.00 0.00 0.00 0.00 0.00 0.00 0.00 0.00 0.00
0.00 0.00 0.00 0.00 0.00 0.01 0.01 0.02 0.03 0.16 0.24 0.47 0.53 0.45 0.31 0.03 0.01 0.01 0.00 0.00 0.00 0.00 0.00 0.00 0.00 0.00 0.00 0.00 0.00 0.00 0.00 0.00 0.00 0.00 0.00 0.00 0.00 0.00 0.00 0.00 0.00 0.00 0.00
0.00 0.00 0.01 0.01 0.00 0.00 0.01 0.03 0.04 0.07 0.22 0.29 0.69 0.66 0.44 0.19 0.02 0.01 0.00 0.00 0.00 0.00 0.00 0.00 0.00 0.00 0.00 0.00 0.00 0.00 0.00 0.00 0.00 0.00 0.00 0.00 0.00 0.00 0.00 0.00 0.00 0.00 0.00
0.00 0.00 0.00 0.01 0.01 0.01 0.01 0.05 0.05 0.06 0.11 0.16 0.42 0.93 0.70 0.43 0.15 0.01 0.00 0.00 0.00 0.00 0.00 0.00 0.00 0.00 0.00 0.00 0.00 0.00 0.00 0.00 0.00 0.00 0.00 0.00 0.00 0.00 0.00 0.00 0.00 0.00 0.00
0.00 0.00 0.00 0.00 0.01 0.01 0.01 0.02 0.10 0.04 0.08 0.08 0.14 0.62 1.15 0.59 0.24 0.02 0.00 0.00 0.00 0.00 0.00 0.00 0.00 0.00 0.00 0.00 0.00 0.00 0.00 0.00 0.00 0.00 0.00 0.00 0.00 0.00 0.00 0.00 0.00 0.00 0.00
0.00 0.00 0.00 0.00 0.00 0.00 0.00 0.02 0.08 0.10 0.03 0.06 0.07 0.19 0.94 1.13 0.68 0.12 0.00 0.00 0.00 0.00 0.00 0.00 0.00 0.00 0.00 0.00 0.00 0.00 0.00 0.00 0.00 0.00 0.00 0.00 0.00 0.00 0.00 0.00 0.00 0.00 0.00
0.00 0.00 0.00 0.00 0.00 0.00 0.00 0.02 0.03 0.08 0.07 0.04 0.07 0.10 0.35 1.05 0.91 0.56 0.04 0.00 0.00 0.00 0.00 0.00 0.00 0.00 0.00 0.00 0.00 0.00 0.00 0.00 0.00 0.00 0.00 0.00 0.00 0.00 0.00 0.00 0.00 0.00 0.00
0.00 0.00 0.00 0.00 0.00 0.00 0.00 0.00 0.02 0.04 0.07 0.05 0.05 0.06 0.17 0.72 1.04 0.64 0.24 0.01 0.00 0.00 0.00 0.00 0.00 0.00 0.00 0.00 0.00 0.00 0.00 0.00 0.00 0.00 0.00 0.00 0.00 0.00 0.00 0.00 0.00 0.00 0.00
0.00 0.00 0.00 0.00 0.00 0.00 0.00 0.00 0.00 0.01 0.03 0.04 0.04 0.07 0.16 0.48 1.19 0.77 0.36 0.13 0.01 0.00 0.00 0.00 0.00 0.00 0.00 0.00 0.00 0.00 0.00 0.00 0.00 0.00 0.00 0.00 0.00 0.00 0.00 0.00 0.00 0.00 0.00
0.00 0.00 0.00 0.00 0.00 0.00 0.00 0.00 0.00 0.00 0.00 0.01 0.03 0.05 0.08 0.26 0.72 1.49 0.85 0.32 0.13 0.01 0.01 0.00 0.00 0.00 0.00 0.00 0.00 0.00 0.00 0.00 0.00 0.00 0.00 0.00 0.00 0.00 0.00 0.00 0.00 0.00 0.00
0.00 0.00 0.00 0.00 0.00 0.00 0.00 0.00 0.00 0.00 0.00 0.00 0.01 0.04 0.06 0.14 0.32 0.67 1.14 1.05 0.56 0.07 0.02 0.01 0.00 0.00 0.00 0.00 0.00 0.00 0.00 0.00 0.00 0.00 0.00 0.00 0.00 0.00 0.00 0.00 0.00 0.00 0.00
0.00 0.00 0.00 0.00 0.00 0.00 0.00 0.00 0.00 0.00 0.00 0.00 0.00 0.03 0.07 0.14 0.37 0.40 0.43 0.69 1.09 0.75 0.16 0.03 0.01 0.00 0.00 0.00 0.00 0.00 0.00 0.00 0.00 0.00 0.00 0.00 0.00 0.00 0.00 0.00 0.00 0.00 0.00
MSLP
1018.03 1017.61 1016.84 1015.90 1015.58 1015.45 1015.17 1015.08 1015.18 1015.21 1015.73 1016.04 1016.16 1016.44 1016.64 1017.01 1017.41 1017.61 1017.69 1017.91 1018.16 1018.09 1018.30 1018.52 1018.69 1018.92 1018.95 1019.00 1019.43 1019.60 1019.79 1019.95 1019.83 1020.01 1020.28 1020.53 1020.54 1020.70 1020.74 1020.75 1020.74 1020.85 1020.89
1019.54 1018.01 1016.95 1015.77 1015.45 1015.48 1015.40 1015.17 1015.36 1015.42 1015.56 1016.06 1016.31 1016.54 1016.85 1017.03 1017.41 1017.74 1017.84 1018.00 1018.29 1018.40 1018.55 1018.97 1019.16 1019.31 1019.41 1019.62 1019.91 1020.14 1020.29 1020.44 1020.35 1020.56 1020.93 1021.03 1020.96 1020.96 1021.19 1021.45 1021.51 1021.53 1021.55
1019.22 1018.25 1017.32 1016.47 1015.61 1015.49 1015.49 1015.33 1015.24 1015.52 1015.60 1015.89 1016.33 1016.67 1016.97 1017.20 1017.43 1017.78 1018.00 1018.14 1018.38 1018.58 1018.80 1019.21 1019.54 1019.70 1019.97 1020.22 1020.42 1020.46 1020.65 1020.70 1020.87 1020.99 1021.20 1021.22 1021.56 1021.66 1021.82 1022.02 1022.11 1022.13 1022.12
1019.74 1018.91 1018.22 1017.17 1016.19 1015.61 1015.45 1015.46 1015.31 1015.48 1015.70 1015.83 1016.21 1016.68 1016.98 1017.27 1017.53 1017.78 1018.10 1018.30 1018.53 1018.72 1019.08 1019.46 1019.80 1020.20 1020.49 1020.70 1020.87 1020.97 1020.94 1021.15 1021.33 1021.38 1021.43 1021.66 1022.01 1022.24 1022.20 1022.30 1022.46 1022.58 1022.70
1019.96 1019.56 1018.85 1017.90 1016.78 1016.16 1015.50 1015.41 1015.44 1015.53 1015.71 1015.89 1016.10 1016.45 1016.97 1017.32 1017.58 1017.80 1018.09 1018.43 1018.76 1019.01 1019.33 1019.77 1019.99 1020.46 1020.96 1021.16 1021.28 1021.48 1021.32 1021.49 1021.72 1021.82 1022.01 1022.15 1022.25 1022.61 1022.61 1022.72 1022.83 1022.97 1023.19
1020.27 1019.87 1019.17 1018.55 1017.76 1016.99 1015.57 1015.33 1015.46 1015.55 1015.66 1015.93 1016.10 1016.36 1016.75 1017.24 1017.56 1017.84 1018.10 1018.48 1018.93 1019.31 1019.69 1020.00 1020.21 1020.69 1021.24 1021.44 1021.68 1021.84 1021.95 1022.06 1021.93 1022.20 1022.40 1022.72 1022.66 1022.88 1023.00 1023.21 1023.36 1023.49 1023.53
1020.58 1020.10 1019.69 1019.21 1018.71 1017.89 1016.73 1015.75 1015.21 1015.53 1015.61 1015.78 1016.15 1016.36 1016.58 1017.01 1017.46 1017.86 1018.20 1018.57 1018.98 1019.33 1019.91 1020.25 1020.62 1021.17 1021.46 1021.62 1021.89 1022.14 1022.28 1022.45 1022.33 1022.57 1022.78 1023.00 1023.07 1023.16 1023.24 1023.52 1023.76 1023.99 1024.06
1020.89 1020.47 1019.99 1019.46 1018.97 1018.71 1017.85 1017.10 1015.52 1015.28 1015.48 1015.58 1015.87 1016.33 1016.59 1016.91 1017.35 1017.84 1018.21 1018.62 1018.98 1019.49 1020.00 1020.45 1021.00 1021.40 1021.64 1021.88 1022.22 1022.45 1022.62 1022.68 1022.66 1022.90 1023.09 1023.31 1023.54 1023.62 1023.65 1023.85 1024.08 1024.24 1024.42
1021.02 1020.64 1020.31 1019.76 1019.24 1018.94 1018.83 1018.08 1017.20 1015.51 1015.21 1015.48 1015.75 1016.09 1016.62 1016.90 1017.30 1017.81 1018.28 1018.64 1019.09 1019.57 1020.11 1020.62 1021.17 1021.61 1021.83 1022.17 1022.43 1022.71 1022.84 1022.97 1022.93 1023.18 1023.48 1023.68 1023.87 1023.85 1024.06 1024.26 1024.46 1024.56 1024.76
1020.62 1020.70 1020.35 1020.01 1019.51 1019.35 1019.44 1018.81 1018.02 1016.40 1015.44 1015.24 1015.63 1016.03 1016.51 1017.01 1017.41 1017.81 1018.25 1018.72 1019.19 1019.74 1020.16 1020.71 1021.20 1021.67 1022.03 1022.43 1022.70 1022.81 1023.07 1023.33 1023.35 1023.64 1023.84 1024.02 1024.11 1024.20 1024.47 1024.72 1024.87 1024.95 1025.05
1020.87 1020.45 1020.17 1020.24 1019.77 1019.09 1019.33 1019.27 1018.80 1016.91 1016.74 1015.25 1015.49 1015.99 1016.52 1016.96 1017.50 1018.04 1018.21 1018.73 1019.31 1019.84 1020.28 1020.78 1021.29 1021.75 1022.22 1022.65 1022.93 1023.06 1023.19 1023.48 1023.64 1023.82 1024.02 1024.32 1024.26 1024.41 1024.70 1025.03 1025.20 1025.30 1025.36
1021.00 1020.34 1020.29 1020.25 1020.27 1020.11 1019.34 1019.41 1018.47 1017.75 1018.08 1015.94 1015.37 1015.59 1016.05 1016.72 1017.21 1017.74 1018.48 1018.86 1019.34 1019.92 1020.41 1020.85 1021.34 1021.97 1022.43 1022.76 1023.10 1023.35 1023.44 1023.66 1023.77 1023.94 1024.21 1024.45 1024.57 1024.71 1024.95 1025.28 1025.48 1025.61 1025.78
1021.18 1020.62 1020.03 1019.85 1020.02 1019.35 1019.81 1019.12 1019.29 1019.00 1019.10 1017.49 1015.32 1015.51 1015.67 1016.40 1017.08 1017.61 1018.38 1018.97 1019.35 1020.01 1020.43 1020.87 1021.53 1022.06 1022.51 1022.94 1023.29 1023.48 1023.75 1023.89 1023.99 1024.16 1024.48 1024.65 1024.87 1025.08 1025.36 1025.56 1025.75 1025.91 1025.95
1021.48 1021.07 1020.49 1019.97 1019.89 1019.66 1019.41 1019.28 1019.84 1018.58 1019.37 1018.65 1017.67 1015.51 1015.40 1016.26 1016.71 1017.11 1017.78 1018.48 1019.07 1019.64 1020.17 1020.94 1021.54 1022.11 1022.68 1023.13 1023.51 1023.80 1024.06 1024.18 1024.29 1024.27 1024.69 1024.92 1025.15 1025.30 1025.56 1025.80 1025.94 1026.24 1026.39
1022.88 1022.17 1021.83 1020.47 1019.31 1018.98 1018.80 1018.20 1017.99 1018.37 1018.94 1018.55 1017.70 1017.29 1014.94 1015.89 1016.38 1016.75 1017.21 1018.02 1018.64 1019.53 1020.22 1020.85 1021.63 1022.13 1022.71 1023.30 1023.77 1024.12 1024.41 1024.61 1024.61 1024.61 1024.93 1025.25 1025.43 1025.56 1025.72 1025.93 1026.13 1026.25 1026.70
1024.03 1023.53 1022.70 1021.00 1019.88 1019.11 1019.72 1018.08 1018.60 1018.99 1017.99 1017.29 1018.18 1017.50 1017.39 1015.17 1015.69 1016.48 1016.94 1017.58 1018.56 1019.05 1020.06 1020.74 1021.36 1021.89 1022.61 1023.25 1023.79 1024.29 1024.73 1024.90 1024.99 1025.06 1025.32 1025.48 1025.68 1025.78 1025.95 1026.10 1026.39 1026.45 1026.74
1023.71 1023.57 1022.65 1021.65 1021.02 1019.62 1018.97 1019.02 1018.81 1018.54 1017.40 1018.49 1018.53 1017.37 1017.32 1015.90 1015.13 1015.78 1016.40 1017.20 1017.90 1018.94 1019.75 1020.81 1021.67 1022.13 1022.65 1023.17 1023.82 1024.43 1024.81 1025.17 1025.40 1025.47 1025.58 1025.83 1025.93 1026.13 1026.24 1026.30 1026.59 1026.79 1026.92
1024.88 1024.01 1022.70 1022.09 1021.08 1020.64 1019.14 1018.79 1017.35 1017.25 1017.46 1018.06 1018.02 1017.61 1018.21 1016.59 1015.11 1014.92 1015.78 1016.68 1017.55 1018.49 1019.46 1020.44 1021.17 1022.05 1022.76 1023.15 1023.68 1024.39 1024.93 1025.33 1025.63 1025.88 1025.89 1026.28 1026.44 1026.47 1026.60 1026.70 1026.87 1027.05 1027.17
1025.65 1024.85 1023.83 1022.73 1022.61 1021.22 1020.85 1020.65 1019.32 1017.51 1017.57 1018.22 1017.53 1017.23 1016.06 1015.99 1015.17 1013.62 1014.83 1015.96 1017.01 1017.83 1018.92 1020.12 1020.92 1021.61 1022.60 1023.50 1024.13 1024.65 1025.12 1025.50 1025.83 1026.08 1026.22 1026.54 1026.73 1026.88 1026.89 1027.06 1027.13 1027.32 1027.46
1025.60 1025.58 1024.90 1023.97 1023.61 1021.46 1021.72 1020.30 1017.45 1016.91 1017.37 1018.06 1016.57 1016.35 1015.86 1015.19 1016.32 1013.69 1013.92 1015.26 1016.24 1017.16 1018.47 1019.76 1020.67 1021.79 1022.74 1023.65 1024.70 1025.49 1025.86 1026.07 1026.25 1026.32 1026.47 1026.92 1027.11 1027.15 1027.20 1027.37 1027.43 1027.54 1027.57
1025.51 1024.92 1025.00 1024.98 1024.33 1022.87 1022.68 1020.96 1018.68 1019.05 1018.69 1018.37 1017.20 1017.26 1015.81 1015.78 1016.01 1014.73 1013.11 1014.28 1015.38 1016.01 1017.31 1018.74 1020.24 1021.43 1023.10 1023.84 1024.70 1025.99 1026.67 1026.78 1026.69 1026.88 1027.03 1027.01 1027.38 1027.49 1027.48 1027.53 1027.62 1027.76 1027.86
1025.86 1025.51 1024.52 1023.71 1023.48 1023.91 1023.01 1021.75 1020.35 1019.91 1018.83 1017.32 1016.90 1015.84 1015.64 1015.36 1014.50 1014.80 1012.65 1013.07 1014.31 1015.35 1016.98 1018.10 1019.09 1020.64 1022.52 1023.02 1023.47 1025.16 1026.54 1027.23 1027.10 1027.21 1027.33 1027.28 1027.20 1027.61 1027.71 1027.76 1027.80 1027.91 1028.16
1026.10 1025.81 1025.52 1024.96 1024.30 1023.23 1022.23 1021.57 1020.66 1020.88 1018.72 1017.38 1016.45 1015.54 1015.50 1015.45 1014.92 1013.43 1013.02 1012.29 1013.51 1014.35 1015.94 1017.03 1018.17 1018.78 1020.35 1022.09 1022.43 1022.68 1025.19 1025.30 1026.54 1027.18 1027.22 1027.28 1027.33 1027.47 1027.52 1027.74 1027.87 1028.04 1028.13
1026.33 1026.14 1025.70 1025.03 1024.32 1023.72 1023.26 1022.76 1022.05 1021.64 1019.64 1018.14 1017.24 1016.03 1015.06 1013.60 1013.44 1012.57 1011.78 1011.62 1011.98 1013.47 1015.03 1015.99 1017.18 1017.92 1019.04 1020.37 1021.70 1022.35 1022.47 1023.03 1024.89 1026.58 1026.98 1026.99 1027.16 1027.24 1027.31 1027.54 1027.64 1027.91 1028.09
1026.51 1026.07 1025.85 1025.41 1024.58 1024.11 1023.66 1022.79 1022.26 1020.99 1019.97 1019.04 1017.47 1015.75 1014.60 1014.02 1013.24 1012.57 1011.87 1011.91 1011.85 1012.23 1013.74 1014.80 1016.14 1017.18 1018.27 1018.68 1019.56 1021.36 1022.39 1022.84 1023.22 1023.97 1025.37 1026.32 1026.93 1026.63 1026.73 1026.95 1027.17 1027.49 1027.83
1026.34 1025.91 1025.56 1025.25 1024.59 1023.72 1023.41 1023.13 1022.40 1021.22 1020.21 1019.11 1018.84 1017.24 1015.83 1013.88 1012.26 1012.55 1011.48 1011.39 1011.93 1011.59 1012.57 1013.78 1015.01 1016.11 1017.15 1018.04 1019.18 1020.16 1020.70 1021.16 1022.00 1022.68 1024.07 1025.18 1025.37 1025.69 1026.25 1026.57 1026.79 1027.06 1027.33
Thickness
5699 5704 5714 5723 5727 5726 5735 5739 5742 5745 5744 5744 5745 5744 5743 5742 5740 5740 5741 5740 5739 5741 5740 5740 5738 5736 5733 5731 5724 5721 5719 5719 5720 5718 5714 5711 5710 5708 5708 5708 5710 5710 5710
5681 5696 5709 5721 5724 5724 5726 5734 5736 5739 5741 5741 5742 5742 5741 5741 5739 5738 5739 5739 5738 5738 5738 5736 5735 5735 5733 5729 5724 5720 5718 5717 5718 5716 5712 5710 5709 5708 5706 5703 5704 5706 5706
5677 5688 5701 5711 5717 5722 5722 5727 5733 5735 5737 5738 5738 5738 5738 5739 5739 5737 5738 5738 5738 5737 5736 5734 5733 5733 5730 5727 5723 5721 5719 5718 5717 5715 5713 5710 5706 5704 5703 5701 5701 5702 5704
5668 5677 5688 5701 5711 5717 5719 5720 5726 5729 5732 5735 5735 5735 5735 5736 5737 5737 5736 5737 5736 5736 5733 5731 5731 5730 5727 5724 5723 5721 5720 5718 5716 5714 5713 5709 5706 5703 5704 5703 5702 5701 5701
5659 5665 5676 5688 5700 5708 5715 5716 5719 5723 5725 5730 5732 5733 5733 5731 5733 5734 5734 5736 5733 5733 5732 5730 5730 5728 5724 5722 5721 5720 5721 5717 5716 5713 5710 5708 5707 5703 5703 5704 5703 5702 5699
5645 5653 5665 5673 5683 5695 5708 5713 5714 5717 5721 5723 5727 5730 5731 5729 5729 5731 5732 5733 5732 5730 5729 5729 5728 5726 5722 5722 5720 5718 5718 5718 5717 5712 5710 5707 5707 5704 5703 5703 5702 5701 5700
5630 5640 5649 5658 5667 5680 5694 5701 5710 5712 5715 5719 5720 5725 5728 5728 5726 5726 5728 5729 5730 5729 5726 5726 5725 5721 5721 5721 5719 5717 5717 5717 5715 5713 5711 5708 5708 5706 5705 5701 5702 5700 5700
5616 5624 5635 5646 5655 5664 5678 5690 5701 5707 5710 5714 5717 5719 5723 5725 5724 5722 5724 5726 5727 5726 5723 5722 5720 5718 5718 5718 5717 5716 5715 5715 5714 5711 5711 5710 5706 5707 5707 5705 5702 5701 5700
5600 5611 5620 5632 5642 5653 5661 5673 5685 5696 5704 5707 5712 5713 5715 5719 5720 5718 5719 5721 5723 5722 5721 5720 5716 5715 5716 5715 5715 5715 5715 5713 5712 5710 5709 5709 5707 5707 5706 5704 5702 5703 5700
5585 5595 5606 5617 5629 5640 5649 5659 5670 5687 5694 5701 5703 5707 5708 5712 5714 5714 5714 5715 5717 5717 5718 5717 5715 5712 5713 5712 5712 5714 5713 5711 5709 5707 5706 5706 5707 5706 5704 5702 5702 5701 5700
5563 5579 5592 5601 5614 5630 5638 5644 5649 5676 5685 5695 5699 5699 5700 5702 5706 5708 5710 5710 5710 5710 5712 5712 5711 5710 5709 5709 5709 5711 5711 5709 5707 5706 5704 5704 5705 5705 5703 5701 5699 5700 5700
5541 5560 5574 5586 5598 5609 5624 5631 5643 5658 5661 5682 5692 5697 5698 5698 5701 5703 5703 5704 5704 5704 5705 5707 5707 5706 5705 5705 5705 5707 5707 5706 5706 5706 5704 5703 5703 5702 5701 5699 5699 5697 5696
5522 5540 5560 5574 5583 5601 5607 5619 5626 5633 5642 5665 5684 5688 5694 5696 5697 5698 5696 5699 5699 5699 5700 5702 5701 5701 5701 5701 5701 5702 5702 5703 5703 5703 5702 5702 5702 5700 5699 5697 5697 5696 5695
5504 5520 5538 5558 5570 5584 5598 5606 5607 5620 5629 5644 5656 5678 5688 5689 5694 5696 5695 5698 5699 5698 5696 5695 5696 5697 5696 5696 5695 5696 5697 5698 5699 5700 5699 5699 5698 5698 5696 5695 5694 5693 5692
5478 5497 5512 5539 5560 5575 5587 5603 5617 5619 5618 5632 5646 5659 5681 5683 5687 5691 5694 5695 5697 5696 5692 5690 5691 5692 5692 5691 5690 5689 5690 5691 5693 5695 5695 5695 5694 5694 5693 5692 5691 5691 5689
5456 5472 5491 5518 5539 5559 5565 5590 5597 5602 5619 5624 5630 5646 5652 5678 5682 5683 5688 5692 5692 5691 5688 5687 5686 5687 5686 5686 5685 5684 5684 5686 5687 5688 5689 5690 5689 5690 5689 5689 5688 5688 5687
5448 5459 5474 5495 5514 5540 5555 5568 5582 5592 5611 5609 5616 5636 5645 5663 5675 5678 5683 5686 5688 5684 5682 5680 5679 5680 5682 5682 5681 5679 5680 5680 5681 5682 5683 5683 5685 5684 5685 5685 5684 5683 5682
5424 5442 5463 5476 5497 5514 5541 5556 5578 5589 5597 5602 5607 5619 5626 5648 5663 5675 5678 5679 5682 5681 5676 5673 5674 5674 5675 5677 5677 5675 5674 5674 5675 5675 5677 5678 5679 5680 5679 5678 5678 5678 5677
5406 5424 5442 5459 5471 5495 5512 5524 5547 5572 5584 5589 5603 5613 5622 5636 5656 5675 5674 5673 5675 5676 5672 5668 5666 5668 5667 5667 5667 5668 5669 5668 5669 5670 5671 5672 5673 5674 5674 5673 5673 5672 5672
5398 5405 5420 5436 5448 5478 5489 5512 5546 5562 5568 5575 5597 5605 5619 5635 5634 5664 5672 5668 5668 5670 5667 5662 5661 5657 5655 5656 5654 5654 5657 5661 5662 5663 5665 5665 5666 5668 5668 5668 5668 5667 5667
5387 5402 5407 5414 5426 5452 5465 5492 5523 5529 5545 5557 5577 5586 5608 5614 5616 5639 5665 5666 5663 5668 5669 5664 5656 5652 5643 5645 5645 5642 5643 5649 5655 5656 5658 5660 5659 5660 5662 5663 5663 5662 5662
5373 5383 5399 5412 5422 5429 5447 5471 5495 5508 5531 5555 5565 5584 5597 5607 5623 5626 5653 5666 5664 5663 5657 5658 5658 5650 5640 5644 5650 5642 5637 5640 5645 5649 5651 5653 5656 5654 5654 5656 5657 5657 5655
5361 5369 5379 5389 5402 5421 5440 5456 5477 5490 5518 5540 5558 5573 5585 5594 5609 5627 5639 5658 5658 5659 5655 5659 5658 5659 5653 5644 5650 5656 5640 5656 5645 5640 5644 5646 5649 5649 5650 5650 5650 5651 5652
5347 5353 5364 5375 5387 5403 5416 5432 5449 5464 5493 5519 5538 5557 5573 5596 5608 5624 5636 5648 5654 5654 5648 5654 5654 5656 5653 5649 5646 5646 5653 5657 5652 5641 5636 5640 5641 5643 5645 5644 5646 5646 5647
5334 5340 5348 5356 5371 5381 5398 5414 5431 5455 5476 5497 5522 5547 5570 5581 5599 5615 5627 5633 5644 5654 5648 5651 5651 5650 5649 5653 5655 5643 5642 5645 5648 5652 5646 5641 5635 5640 5640 5642 5643 5645 5643
5326 5328 5336 5344 5354 5366 5381 5396 5411 5437 5457 5480 5496 5521 5542 5572 5596 5601 5619 5625 5634 5641 5649 5647 5647 5647 5648 5648 5645 5644 5647 5651 5651 5650 5643 5637 5644 5638 5637 5638 5641 5641 5641